Wind_Speed
3 4 4 4 4 5 5 5 5 5 5 5 5 5 4 5 5 5 6 7 8 8 9 10 11 12 13 13 13 14 14 14 15 16 17 17 16 16 16 17 16 16 16
2 3 4 4 5 5 5 5 5 5 5 5 5 4 4 4 4 4 5 6 7 8 8 9 10 11 12 13 13 13 14 14 15 16 17 17 17 17 17 17 16 17 17
2 3 3 4 5 5 5 5 5 5 5 5 5 4 4 4 3 4 5 5 6 6 7 8 9 10 11 12 13 13 13 15 15 16 17 18 18 18 17 18 17 17 18
1 2 3 4 5 5 5 5 5 5 5 5 5 4 3 3 3 4 4 5 5 6 7 8 9 9 10 12 13 13 13 15 15 16 17 18 18 17 17 18 18 18 18
1 2 3 4 4 5 5 5 5 5 5 5 5 4 3 3 3 4 4 5 5 5 6 7 9 9 10 11 12 13 14 15 16 17 17 18 18 18 18 18 18 18 18
1 2 3 3 4 5 5 5 5 5 5 5 5 4 4 4 4 4 4 4 5 5 5 6 8 9 10 11 11 12 13 14 15 17 18 18 17 18 19 19 18 18 18
1 2 2 3 4 4 5 5 5 5 5 5 5 4 4 4 4 4 4 4 4 5 5 6 8 9 10 11 11 12 13 14 15 16 18 19 19 19 19 20 20 19 19
2 2 3 3 4 4 4 5 5 5 5 5 5 5 5 4 4 4 4 4 4 5 6 6 7 8 10 11 12 12 11 13 14 15 16 17 19 20 20 21 21 21 21
3 3 3 3 4 4 4 4 5 5 5 5 4 5 5 4 4 4 4 4 5 6 7 7 7 9 10 11 12 13 13 13 14 15 16 17 18 20 21 22 22 23 22
3 3 3 3 4 4 5 4 5 4 4 5 4 4 5 5 5 5 4 5 5 6 7 8 9 9 10 11 12 13 13 14 16 16 17 18 20 21 22 22 23 24 24
4 3 3 4 4 4 5 4 4 4 4 5 5 5 5 5 5 5 5 6 7 7 8 9 10 10 11 11 12 13 14 15 16 17 18 19 20 21 22 23 24 24 25
4 4 4 4 4 5 5 5 5 5 4 4 5 5 5 5 6 6 7 7 8 8 9 10 10 11 12 13 13 14 15 15 16 17 19 20 21 22 23 24 25 26 26
5 5 5 5 5 5 5 5 5 5 5 5 6 6 6 6 7 7 8 8 9 9 10 11 12 12 12 13 14 15 16 17 17 18 19 20 21 22 23 25 26 26 27
6 6 6 6 6 6 6 5 6 6 6 6 6 6 6 7 8 9 9 9 10 11 12 12 13 14 15 15 16 16 17 18 19 20 20 21 22 22 23 25 26 27 27
7 7 7 7 7 7 7 7 6 7 6 6 7 7 8 9 9 10 10 11 12 12 13 14 14 15 16 17 17 18 19 20 21 22 22 22 23 24 25 25 27 28 29
8 8 8 8 8 8 8 8 8 8 8 8 9 9 10 11 11 12 12 13 13 14 14 15 16 16 17 18 18 19 20 21 22 23 24 25 25 26 26 27 28 29 30
10 10 10 10 10 9 9 9 9 9 10 10 11 11 12 12 13 13 14 15 15 16 16 17 18 18 18 19 20 21 21 22 24 25 26 27 28 29 30 30 30 31 32
11 11 11 11 11 10 10 10 10 10 11 12 13 13 14 14 15 15 16 16 17 18 18 19 20 20 21 22 22 23 24 25 26 26 27 28 29 30 31 32 32 33 34
13 13 13 12 12 11 11 11 11 12 13 14 14 15 15 16 16 17 18 18 19 20 21 21 22 22 23 24 25 26 26 27 28 28 29 30 31 31 32 33 34 34 35
14 13 13 13 13 13 12 13 13 13 14 15 15 16 16 17 18 19 20 21 21 22 23 24 24 25 26 27 28 29 29 29 30 31 32 32 33 33 33 34 35 35 36
14 14 14 14 14 14 14 14 14 14 15 16 16 17 18 19 20 21 22 23 23 24 25 26 27 28 29 29 30 31 31 32 32 32 33 33 34 34 35 36 37 37 38
15 15 14 14 14 14 14 14 15 16 16 17 18 19 20 21 22 23 24 25 26 27 27 28 29 30 31 31 32 32 33 33 34 34 35 35 36 36 37 38 38 39 40
14 14 14 15 15 15 15 15 16 17 18 19 20 21 22 23 24 25 26 27 28 29 30 30 31 32 33 33 33 34 34 35 36 36 37 37 38 39 40 41 42 43 44
15 15 14 14 15 16 17 17 18 19 19 21 22 23 24 25 26 27 28 29 30 31 32 33 34 35 35 36 36 36 37 38 39 39 40 40 41 42 43 44 45 46 47
14 15 15 15 16 17 18 19 20 20 22 23 25 26 27 28 29 30 31 31 32 34 34 35 36 36 37 38 38 39 40 40 41 42 42 43 44 44 45 46 48 49 50
15 15 16 17 18 19 20 21 21 23 24 26 27 28 30 31 31 33 33 34 35 36 36 37 37 38 38 39 40 42 43 44 44 44 44 45 46 47 47 47 49 50 51
Wind_Direction
346 353 2 2 357 352 349 346 341 336 330 325 318 309 296 287 276 269 252 246 243 241 241 241 239 237 236 235 234 233 232 230 224 217 218 222 225 227 228 229 228 227 227
350 6 7 8 5 360 353 348 344 338 332 327 320 313 304 292 272 264 255 249 247 245 243 241 240 238 238 235 233 230 229 229 224 222 223 225 226 230 232 232 232 231 231
16 16 17 17 14 7 358 351 346 341 335 327 321 316 306 295 274 260 256 252 247 245 244 243 241 238 239 235 234 228 228 229 228 225 226 227 229 232 234 235 236 237 234
27 20 18 16 11 7 5 1 355 352 349 340 332 320 306 297 279 268 257 253 250 244 245 246 245 241 239 239 239 233 229 229 230 229 229 230 232 233 235 236 237 239 239
18 8 6 7 8 10 8 4 1 357 354 352 347 338 321 309 296 288 271 258 257 254 252 250 246 246 243 241 241 239 234 230 232 233 234 233 234 236 236 237 237 240 243
324 345 352 358 3 5 5 5 1 357 356 356 354 348 337 323 309 300 290 275 267 269 267 261 255 250 247 244 246 245 240 234 234 235 236 238 236 237 238 238 238 241 244
295 321 338 349 355 357 1 2 360 358 358 357 354 348 342 336 322 312 303 293 286 284 279 271 265 259 255 252 250 248 244 239 236 237 238 239 239 241 241 240 240 242 245
282 306 327 340 348 350 353 359 0 1 2 359 354 348 342 333 325 318 310 299 294 293 286 278 273 265 262 260 259 255 251 246 243 243 242 240 242 244 246 244 243 244 246
278 300 318 331 338 339 341 344 351 353 355 354 350 348 342 333 324 320 315 308 303 299 292 283 276 273 271 265 262 258 256 255 250 250 250 249 248 248 249 249 247 248 248
276 297 310 321 329 332 333 335 343 345 345 347 342 339 336 333 326 320 313 307 304 303 297 289 281 278 275 271 267 263 262 262 259 257 257 257 255 253 253 254 252 250 250
268 287 300 311 320 327 330 332 337 341 340 342 342 337 334 330 327 321 314 309 306 304 300 293 288 284 278 277 270 268 266 266 266 266 264 264 263 259 256 256 255 254 254
264 279 293 303 309 317 322 327 330 336 337 334 334 328 323 324 322 321 316 313 311 308 303 296 292 288 286 284 278 273 271 268 267 267 267 267 265 263 262 260 258 257 257
263 273 285 295 300 306 311 315 320 329 331 331 330 326 318 316 316 315 314 313 312 310 307 302 297 292 290 288 284 280 276 274 272 271 269 268 266 266 264 262 262 261 260
261 271 282 288 291 293 296 300 307 315 319 325 327 325 321 315 312 313 312 309 307 307 306 304 300 295 291 289 286 283 281 279 277 275 274 270 268 268 265 264 265 264 264
257 265 275 281 285 288 288 291 294 301 307 313 319 320 321 320 318 314 311 307 306 305 305 304 302 300 295 292 289 286 283 282 281 279 277 274 272 270 268 266 266 265 266
258 264 268 274 281 285 285 287 290 294 299 305 310 314 315 315 316 317 315 311 307 306 306 304 303 301 297 294 291 289 287 285 283 281 279 278 277 276 273 272 269 268 267
263 265 268 271 275 280 282 284 288 292 296 301 304 307 310 312 312 313 312 311 309 308 306 305 302 300 298 294 293 292 290 288 285 283 282 281 280 278 276 275 273 271 271
264 267 268 270 272 277 282 285 288 292 296 299 302 304 305 307 308 308 309 310 308 307 307 305 303 300 297 296 295 292 291 289 287 285 284 283 281 280 279 277 274 273 272
264 265 266 270 274 278 281 284 288 293 297 300 302 304 304 305 306 307 307 307 306 305 304 303 302 300 298 297 296 295 293 291 289 287 286 284 282 281 280 278 276 275 273
264 264 265 269 274 278 281 284 288 292 296 299 301 302 303 304 304 305 306 307 306 306 304 303 301 300 299 298 297 296 294 292 291 289 288 286 284 282 281 280 277 276 275
266 263 265 270 273 277 280 284 288 291 296 298 300 302 303 304 305 306 306 306 306 305 303 302 301 300 299 298 297 296 294 293 292 291 290 288 286 284 282 281 279 277 276
266 266 268 271 275 278 281 286 290 293 297 299 301 303 305 305 306 306 306 305 305 304 303 302 301 300 300 298 297 295 294 293 292 291 290 288 287 286 285 284 282 280 278
265 266 268 270 274 279 284 288 291 295 298 300 301 303 304 305 305 305 305 305 305 305 304 303 302 301 300 299 298 296 295 294 293 292 290 289 288 287 286 285 283 282 281
269 268 268 272 276 280 286 289 292 296 298 300 302 303 304 305 305 304 305 305 305 305 304 303 302 302 301 299 298 296 295 294 293 292 290 289 288 287 286 286 285 284 283
271 271 272 276 280 283 286 289 292 295 298 301 303 304 304 304 304 304 304 305 305 305 304 303 302 301 300 298 297 295 294 294 293 292 291 289 289 288 287 286 286 285 284
272 276 277 280 282 285 288 291 293 296 299 301 303 304 304 304 304 305 304 304 304 304 303 303 302 301 300 299 298 297 296 295 294 293 292 291 289 288 288 287 287 286 285
Height
5892 5891 5890 5889 5888 5886 5885 5884 5882 5881 5880 5879 5879 5878 5877 5876 5875 5875 5875 5875 5875 5876 5876 5876 5877 5877 5878 5879 5879 5879 5880 5880 5879 5880 5883 5887 5889 5891 5892 5893 5895 5896 5897
5891 5891 5890 5889 5887 5886 5885 5883 5882 5881 5880 5879 5878 5877 5876 5875 5874 5874 5874 5874 5874 5874 5874 5875 5875 5876 5876 5877 5877 5877 5878 5879 5880 5882 5884 5885 5887 5889 5890 5891 5892 5893 5894
5891 5890 5890 5888 5887 5886 5884 5883 5882 5880 5879 5878 5877 5876 5875 5874 5873 5873 5872 5872 5872 5873 5873 5873 5874 5874 5874 5874 5875 5875 5877 5878 5879 5880 5882 5884 5885 5887 5888 5889 5890 5891 5892
5891 5890 5890 5888 5887 5886 5884 5883 5881 5880 5879 5878 5876 5875 5874 5873 5872 5872 5871 5871 5871 5871 5872 5872 5872 5872 5873 5873 5874 5874 5875 5876 5878 5879 5880 5881 5883 5884 5885 5886 5887 5888 5889
5891 5890 5889 5888 5887 5886 5884 5883 5881 5880 5879 5877 5876 5875 5874 5873 5872 5871 5871 5870 5870 5870 5870 5870 5871 5871 5871 5872 5872 5873 5874 5874 5875 5877 5878 5879 5880 5882 5883 5883 5884 5885 5886
5890 5890 5889 5888 5887 5886 5884 5883 5881 5880 5879 5877 5876 5874 5873 5872 5871 5870 5870 5870 5870 5870 5869 5869 5869 5869 5869 5870 5870 5870 5871 5872 5873 5874 5875 5876 5877 5879 5880 5880 5881 5882 5883
5890 5890 5889 5887 5886 5885 5884 5883 5881 5880 5878 5877 5876 5874 5873 5872 5871 5870 5869 5869 5869 5869 5868 5868 5868 5867 5868 5868 5868 5868 5868 5869 5870 5871 5872 5873 5874 5875 5877 5877 5878 5879 5880
5890 5889 5888 5887 5886 5885 5884 5883 5881 5880 5878 5877 5876 5874 5873 5872 5871 5870 5869 5868 5868 5867 5867 5866 5866 5866 5866 5866 5866 5866 5866 5866 5867 5868 5869 5870 5871 5872 5873 5874 5875 5875 5876
5889 5888 5888 5887 5886 5885 5883 5882 5881 5880 5878 5877 5876 5875 5873 5872 5870 5870 5869 5868 5867 5866 5866 5865 5865 5864 5864 5864 5864 5864 5864 5864 5865 5865 5866 5867 5867 5868 5869 5870 5871 5871 5872
5888 5888 5887 5886 5885 5884 5883 5882 5881 5879 5878 5877 5875 5874 5873 5871 5870 5869 5869 5867 5866 5866 5865 5864 5863 5862 5862 5862 5861 5861 5861 5861 5862 5862 5863 5863 5864 5864 5865 5865 5866 5866 5867
5887 5887 5886 5885 5884 5883 5882 5881 5880 5879 5877 5876 5875 5874 5872 5871 5870 5869 5868 5867 5866 5865 5863 5862 5861 5860 5860 5859 5859 5859 5859 5858 5859 5859 5859 5859 5860 5860 5860 5860 5861 5861 5862
5886 5885 5885 5884 5883 5882 5882 5881 5879 5878 5877 5876 5874 5873 5872 5871 5869 5868 5867 5866 5864 5863 5862 5861 5860 5859 5858 5857 5856 5856 5856 5855 5855 5855 5855 5855 5855 5855 5855 5855 5856 5856 5856
5884 5884 5883 5883 5882 5881 5880 5879 5879 5877 5876 5875 5873 5872 5871 5870 5868 5867 5866 5865 5863 5862 5860 5859 5858 5856 5855 5855 5854 5853 5852 5852 5851 5851 5851 5850 5850 5849 5849 5849 5849 5849 5850
5883 5882 5882 5881 5881 5880 5879 5878 5877 5876 5875 5874 5872 5871 5870 5869 5867 5866 5864 5863 5862 5860 5858 5857 5855 5854 5853 5852 5850 5849 5849 5848 5847 5846 5846 5845 5844 5844 5843 5843 5843 5843 5843
5881 5880 5880 5880 5879 5878 5877 5877 5876 5875 5874 5873 5871 5870 5869 5867 5866 5864 5862 5861 5860 5858 5856 5854 5852 5851 5849 5848 5847 5845 5844 5843 5842 5841 5840 5839 5839 5838 5837 5837 5837 5836 5836
5878 5878 5878 5878 5877 5876 5875 5875 5874 5873 5872 5871 5870 5869 5867 5865 5864 5862 5860 5858 5857 5855 5853 5851 5849 5847 5845 5844 5842 5841 5839 5838 5837 5836 5834 5833 5832 5831 5830 5830 5829 5829 5829
5876 5876 5875 5875 5875 5874 5873 5873 5872 5871 5870 5869 5868 5866 5865 5863 5861 5860 5858 5856 5854 5852 5850 5848 5846 5843 5841 5839 5837 5836 5834 5833 5831 5829 5828 5826 5825 5824 5823 5822 5821 5820 5820
5873 5873 5873 5872 5872 5871 5871 5870 5869 5868 5867 5866 5865 5863 5862 5860 5858 5856 5854 5852 5850 5848 5846 5844 5842 5839 5837 5835 5832 5830 5828 5826 5824 5823 5821 5819 5818 5816 5815 5813 5812 5811 5811
5869 5869 5869 5869 5869 5868 5868 5867 5866 5865 5864 5863 5861 5860 5858 5856 5855 5853 5851 5848 5846 5844 5841 5839 5837 5834 5832 5829 5827 5824 5822 5819 5817 5815 5813 5811 5809 5808 5806 5804 5803 5802 5801
5865 5865 5865 5866 5865 5865 5864 5864 5863 5862 5861 5859 5858 5856 5854 5852 5850 5848 5846 5844 5841 5839 5836 5833 5831 5828 5826 5823 5820 5817 5815 5812 5810 5807 5805 5803 5800 5798 5797 5795 5793 5792 5791
5861 5861 5862 5862 5861 5861 5861 5860 5859 5858 5857 5855 5853 5851 5850 5847 5845 5843 5841 5838 5835 5833 5830 5827 5824 5821 5818 5815 5812 5809 5806 5804 5801 5798 5796 5793 5791 5789 5787 5785 5783 5781 5780
5857 5857 5857 5857 5857 5857 5857 5856 5855 5854 5852 5851 5849 5847 5845 5842 5840 5837 5834 5832 5829 5826 5823 5820 5817 5813 5810 5807 5804 5800 5797 5795 5792 5789 5786 5783 5780 5778 5776 5774 5772 5770 5768
5852 5853 5853 5853 5853 5853 5852 5851 5850 5849 5847 5845 5843 5841 5839 5836 5834 5831 5828 5824 5821 5818 5815 5811 5808 5805 5801 5798 5795 5791 5787 5784 5781 5778 5775 5772 5769 5767 5764 5761 5759 5757 5755
5849 5849 5849 5849 5849 5848 5848 5847 5845 5844 5842 5840 5838 5835 5833 5830 5827 5824 5820 5817 5813 5810 5806 5802 5799 5795 5791 5787 5784 5780 5777 5774 5770 5767 5763 5761 5758 5754 5751 5748 5745 5743 5740
5845 5845 5845 5845 5844 5843 5843 5841 5840 5838 5836 5834 5831 5829 5826 5823 5819 5816 5813 5809 5805 5801 5797 5793 5788 5784 5780 5776 5773 5769 5765 5762 5759 5755 5751 5748 5745 5741 5738 5734 5731 5727 5724
5841 5841 5840 5840 5839 5838 5837 5836 5834 5832 5830 5828 5825 5821 5818 5815 5811 5807 5803 5800 5796 5791 5787 5783 5778 5774 5770 5766 5761 5757 5753 5749 5745 5742 5738 5734 5730 5727 5724 5721 5716 5712 5708